Location: Beccas
(43.4309°N, 0.1528°E)
Time: 22:36:06
(UTC+00:00)

deb Kosmos-2227 - Visible Passes

Search period start: 10 August 2022 00:00
Search period end: 20 August 2022 00:00
Orbit: 783 x 1038 km, 70.8° (Epoch: 09 August)

Date Brightness Start Highest point End Pass type
(mag) Time Alt. Az. Time Alt. Az. Time Alt. Az.
10 Aug ? 21:05:30 10° NNW 21:12:09 71° WSW 21:15:52 27° S visible
10 Aug ? 22:54:50 10° WNW 22:56:28 11° W 22:58:06 10° WSW visible
11 Aug ? 19:25:59 10° N 19:31:53 32° NE 19:37:35 10° ESE visible
11 Aug ? 21:11:23 10° NNW 21:17:49 53° WSW 21:21:45 23° S visible
12 Aug ? 19:31:34 10° NNW 19:37:50 41° NE 19:43:51 10° SE visible
12 Aug ? 21:17:21 10° NW 21:23:26 40° WSW 21:27:40 18° SSW visible
13 Aug ? 19:37:12 10° NNW 19:43:44 53° ENE 19:49:57 10° SE visible
13 Aug ? 21:23:26 10° NW 21:28:58 29° W 21:33:39 13° SSW visible
14 Aug ? 19:42:54 10° NNW 19:49:34 69° ENE 19:55:53 10° SE visible
14 Aug ? 21:29:43 10° NW 21:34:28 22° W 21:39:05 10° SW visible
15 Aug ? 19:48:38 10° NNW 19:55:19 89° NE 20:01:39 10° SSE visible
15 Aug ? 21:36:20 10° WNW 21:39:55 15° W 21:43:25 10° SW visible
16 Aug ? 19:54:26 10° NNW 20:01:02 70° WSW 20:07:16 10° SSE visible
16 Aug ? 21:44:13 10° W 21:45:18 10° W 21:46:23 10° WSW visible
17 Aug ? 20:00:19 10° NW 20:06:41 52° WSW 20:12:42 10° S visible
18 Aug ? 20:06:17 10° NW 20:12:16 38° WSW 20:17:57 10° S visible
19 Aug ? 20:12:23 10° NW 20:17:48 28° W 20:22:59 10° SSW visible
